Torna al catalogo

SL-6 R/B(2)

AttivoHEO
NORAD 13090·ROCKET BODY·🇷🇺 Russia

Lanciato Mar 3, 1982 da Plesetsk Cosmodrome

Loading…

Prossimi Passaggi (prossime 24 ore)

TLE

AggiornatoSource: Space-Track

Epoca: Sep 13, 2026, 22:37 UTC

1 13090U 82016D   26256.94272867 -.00000315  00000-0  44750-2 0  9998
2 13090  63.9994  93.6520 7222375 358.1350   0.2871  2.03677625330320

Traccia SL-6 R/B(2) in tempo reale con AllMySat

Download on the App Store